Flag for U.S.A. Weather past 2 weeks in Clovis, New Mexico, U.S.A.

Now
83 °F

Sunny.


Feels Like: 84 °F
Forecast: 65 / 88 °F
Wind: 6 mph from Southwest

Location: Cannon Air Force Base / Clovis

Current Time: Aug 3, 2015 at 1:48:33 PM

Latest Report: Aug 3, 2015 at 12:58 PM


Visibility: 10 mi

Pressure: 29.88 "Hg (25.79 "Hg at 1300m altitude)

Humidity: 49%

Dew point: 63 °F

Location of ClovisLocation

Historic Weather in Clovis — Graph

°F

Clovis temperature yesterday

Maximum temperature yesterday: 91 °F (at 4:58 PM)
Minimum temperature yesterday: 66 °F (at 5:58 AM)
Average temperature yesterday: 76 °F

Past Weeks' High & Low Weather Summary

 TemperatureHumidityPressure
High99 °F (Jul 27, 3:58 PM)98% (Jul 21, 1:58 AM)30.35 "Hg (Jul 21, 1:58 AM)
Low64 °F (Jul 21, 5:58 AM)19% (Jul 27, 2:58 PM)29.73 "Hg (Jul 27, 5:58 PM)
Average77 °F65%29.93 "Hg
* Reported Jul 19 11:58 AM — Aug 3 11:58 AM, Clovis, Weather by CustomWeather, © 2015

Note: Actual official high and low records may vary slightly from our data, if they occured in-between our weather recording intervals... More about our weather records

Advertising

Clovis weather history for previous 24 hours

 ConditionsComfort  
Time TempWeatherWind HumidityBarometerVisibility
11:58 AM
Mon, Aug 3
82 °FScattered clouds.2 mph55%29.88 "Hg10 mi
10:58 AM79 °FPassing clouds.7 mph60%29.90 "Hg10 mi
9:58 AM76 °FSunny.7 mph67%29.90 "Hg10 mi
8:58 AM74 °FPassing clouds.7 mph71%29.90 "Hg10 mi
7:58 AM72 °FSunny.6 mph81%29.90 "Hg10 mi
6:58 AM67 °FClear.No wind93%29.90 "Hg10 mi
5:58 AM66 °FClear.No wind97%29.90 "Hg10 mi
4:58 AM66 °FPassing clouds.5 mph97%29.87 "Hg10 mi
3:58 AM68 °FOvercast.7 mph88%29.85 "Hg10 mi
2:58 AM69 °FPassing clouds.8 mph85%29.86 "Hg10 mi
1:58 AM68 °FPassing clouds.10 mph88%29.86 "Hg10 mi
12:58 AM68 °FPartly cloudy.8 mph88%29.88 "Hg10 mi
11:58 PM
Sun, Aug 2
71 °FMostly cloudy.10 mph72%29.88 "Hg10 mi
10:58 PM71 °FPassing clouds.14 mph77%29.88 "Hg10 mi
9:58 PM71 °FPassing clouds.6 mph72%29.85 "Hg10 mi
8:58 PM70 °FPassing clouds.13 mph69%29.84 "Hg10 mi
8:02 PM72 °FThundershowers. Sunny.10 mph61%30.01 "Hg10 mi
7:58 PM70 °FThunderstorms. Sunny.12 mph68%29.85 "Hg10 mi
6:59 PM77 °FThundershowers. Passing clouds.7 mph65%29.99 "Hg10 mi
6:58 PM78 °FThunderstorms. Passing clouds.7 mph62%29.82 "Hg10 mi
5:58 PM78 °FThunderstorms. Partly sunny.13 mph65%29.81 "Hg10 mi
4:58 PM91 °FSunny.5 mph32%29.80 "Hg10 mi
3:58 PM90 °FSunny.8 mph32%29.79 "Hg10 mi
2:58 PM89 °FSunny.9 mph34%29.83 "Hg10 mi
1:58 PM89 °FPassing clouds.12 mph37%29.85 "Hg10 mi
Weather by CustomWeather, © 2015

See weather overviewHow to use our weather pages